Location: Unspecified
(36.9193°S, 174.7252°E)
Time: 07:10:13
(UTC+13:00)

Nauka - Visible Passes

Search period start: 25 September 2021 23:00
Search period end: 06 October 2021 00:00
Orbit: 419 x 423 km, 51.6° (Epoch: 24 September)

Date Brightness Start Highest point End Pass type
(mag) Time Alt. Az. Time Alt. Az. Time Alt. Az.
26 Sep ? 04:49:53 26° ESE 04:49:53 26° ESE 04:51:38 10° ESE visible
26 Sep ? 06:22:53 11° WSW 06:25:18 20° SSW 06:28:00 10° SSE visible
27 Sep ? 05:37:57 29° SW 05:38:14 30° SSW 05:41:21 10° SSE visible
28 Sep ? 04:52:55 25° SSE 04:52:55 25° SSE 04:54:36 10° SE visible
28 Sep ? 06:27:37 10° SW 06:28:47 11° SSW 06:29:58 10° S visible
29 Sep ? 05:40:50 14° SW 05:41:37 15° SSW 05:43:38 10° SSE visible
30 Sep ? 04:55:42 17° S 04:55:42 17° S 04:57:06 10° SSE visible
02 Oct ? 04:58:17 11° SSW 04:58:17 11° SSW 04:58:58 10° S visible
